Overview Statistics Trail Chart Weather Telemetry Raw packets
 

This is the latest recevied weather packets stored in our database for station/object K7DC. If no packets are shown the sender has not sent any weather packets the latest 10 day(s).

<< 111 112 113 114 >>
Time Temp. Humidity Pressure Rain* Wind** Luminosity Snow
1787793936 36.67° C 32% 1012.9 hPa 0 mm - 33 W/m² -
1787793633 37.22° C 30% 1013 hPa 0 mm - 35 W/m² -
1787793333 37.78° C 28% 1012.8 hPa 0 mm - 38 W/m² -
1787793027 37.78° C 26% 1012.7 hPa 0 mm - 42 W/m² -
1787792722 37.78° C 26% 1013 hPa 0 mm - 43 W/m² -
1787792421 37.78° C 27% 1012.7 hPa 0 mm - 45 W/m² -
1787792119 37.22° C 28% 1012.7 hPa 0 mm - 49 W/m² -
1787791818 37.78° C 27% 1012.6 hPa 0 mm - 55 W/m² -
1787791513 37.78° C 27% 1012.9 hPa 0 mm - 59 W/m² -
1787791208 37.78° C 26% 1012.8 hPa 0 mm - 60 W/m² -
1787790904 38.33° C 26% 1012.9 hPa 0 mm - 59 W/m² -
1787790599 38.89° C 25% 1012.7 hPa 0 mm - 57 W/m² -
1787790294 38.89° C 24% 1012.9 hPa 0 mm - 57 W/m² -
1787789990 38.89° C 24% 1012.9 hPa 0 mm - 58 W/m² -
1787789690 38.89° C 24% 1012.7 hPa 0 mm - 57 W/m² -
1787789390 38.89° C 25% 1012.7 hPa 0 mm - 57 W/m² -
1787789084 38.89° C 24% 1012.8 hPa 0 mm - 65 W/m² -
1787788782 38.89° C 24% 1012.8 hPa 0 mm - 57 W/m² -
1787788477 39.44° C 24% 1012.8 hPa 0 mm - 59 W/m² -
1787788172 40° C 22% 1012.7 hPa 0 mm - 61 W/m² -
1787787867 40.56° C 21% 1012.7 hPa 0 mm - 64 W/m² -
1787787566 40.56° C 21% 1012.5 hPa 0 mm - 69 W/m² -
1787787264 41.11° C 20% 1012.6 hPa 0 mm - 72 W/m² -
1787786960 41.11° C 19% 1012.5 hPa 0 mm - 69 W/m² -
1787786655 41.67° C 19% 1012.6 hPa 0 mm - 62 W/m² -

* Rain latest hour (hover to see other rain measurements)
** Current wind speed in m/s (hover to see current wind gust speed)